Content
SEND FEEDBACK

Daily
Averages
Monthly
Summary
United States of America

BAYSIDE, NEW YORK


Home > North America > United States > New York
Elevation: 11 feet     Latitude: 40 46N     Longitude: 073 54W

WEATHER
 
SELECT A DAY
Number of Records: 191,080;   Date Range: 1/1/95 - 7/26/14
 
SHARE

PRINT THIS DATA

[ ← Previous Day ]
WEATHER ALMANAC - OCTOBER 29, 2013
[ Next Day → ]
[ °C ]   °F
Weather ElementAverageHighLow
Temperature49.6 °F54 °F (2:51 pm)44.1 °F (7:51 am)
Dewpoint30.3 °F37 °F (10:51 pm)28 °F (7:51 am)
Humidity47.9 %61 % (10:51 pm)38 % (1:51 pm)
Barometer30.38 in30.42 in (9:51 am)30.34 in (1:51 am)
Wind Speed8.1 mph11.5 mph (2:51 am)
Weather ElementAverage
Visibility10 mi
Wind DirectionNE (47.8 °)

Weather ElementTotal
Precipitation---
Heating Degree Days16 (Base 65)
Averaged from 23 records on October 29, 2013
WEATHER CONDITIONS BREAKOUT
WIND DIRECTION BREAKOUT
WEATHER BY HOUR - OCTOBER 29, 2013
[ °C ]   °F
Local TimeTemperatureDewpointHumidityBarometerVisibilityWind DirectionWind SpeedGust SpeedPrecipitationEventsConditions
1:51 AM48.9 °F28.9 °F46 %30.34 in10.0 miNNE (30°)8.1 mphMostly Cloudy
2:51 AM48.9 °F30.0 °F48 %30.34 in10.0 miNNE (30°)11.5 mphMostly Cloudy
3:51 AM48.9 °F34.0 °F56 %30.35 in10.0 miENE (70°)11.5 mphOvercast
4:51 AM46.9 °F33.1 °F59 %30.36 in10.0 miNE (40°)8.1 mphOvercast
5:51 AM46.0 °F30.9 °F56 %30.38 in10.0 miNNE (30°)10.4 mphMostly Cloudy
6:51 AM45.0 °F30.0 °F56 %30.39 in10.0 miNNE (20°)8.1 mphPartly Cloudy
7:51 AM44.1 °F28.0 °F53 %30.40 in10.0 miNE (40°)10.4 mphMostly Cloudy
8:51 AM45.0 °F28.0 °F52 %30.41 in10.0 miNNE (20°)9.2 mphScattered Clouds
9:51 AM46.0 °F28.9 °F51 %30.42 in10.0 miNNE (30°)11.5 mphMostly Cloudy
10:51 AM48.0 °F28.9 °F48 %30.42 in10.0 miNE (50°)9.2 mphPartly Cloudy
11:51 AM50.0 °F28.9 °F44 %30.41 in10.0 miENE (60°)10.4 mphPartly Cloudy
12:51 PM52.0 °F28.0 °F40 %30.40 in10.0 miENE (70°)8.1 mphPartly Cloudy
1:51 PM53.1 °F28.0 °F38 %30.37 in10.0 miNE (40°)6.9 mphMostly Cloudy
2:51 PM54.0 °F28.9 °F38 %30.36 in10.0 miENE (60°)6.9 mphMostly Cloudy
3:51 PM54.0 °F30.0 °F40 %30.37 in10.0 miENE (60°)9.2 mphScattered Clouds
4:51 PM54.0 °F30.9 °F41 %30.37 in10.0 miENE (60°)9.2 mphScattered Clouds
5:51 PM52.0 °F30.9 °F45 %30.36 in10.0 miEast (80°)9.2 mphPartly Cloudy
6:51 PM52.0 °F28.9 °F41 %30.37 in10.0 miENE (60°)6.9 mphScattered Clouds
7:51 PM52.0 °F30.0 °F43 %30.38 in10.0 miVariable3.5 mphScattered Clouds
8:51 PM51.1 °F32.0 °F48 %30.37 in10.0 miNE (40°)4.6 mphPartly Cloudy
9:51 PM51.1 °F30.0 °F44 %30.37 in10.0 miNE (40°)4.6 mphPartly Cloudy
10:51 PM50.0 °F37.0 °F61 %30.38 in10.0 miNE (40°)4.6 mphMostly Cloudy
11:51 PM48.9 °F33.1 °F54 %30.36 in10.0 miSE (130°)4.6 mphOvercast
Hourly data recorded from KLGA, located miles away from Bayside, New York







STORIES FROM OUR PARTNERS